Weather observations for the past three days for
Idaho Falls Regional Airport
Metric (Imperial)
Date Time (mdt) Wind (kph) Vis. (km) Weather Sky Cond. Temperature (ºC) Relative Humidity Wind Chill (°C) Heat Index (°C) Pressure Precipitation (cm)
Air Dwpt 6 hour altimeter (cm) sea level (mb) 1 hr 3 hr 6 hr
Max. Min.
13 06:53 N 11 16.09 Fair CLR 12.2 8.9 80% 76.61 1016.6
13 05:53 Calm 16.09 Fair CLR 11.7 8.3 20.6 10.6 80% 76.58 1016.1
13 04:53 N 6 16.09 Fair CLR 12.2 8.9 80% 76.58 1016.0
13 03:53 N 7 16.09 Fair CLR 13.3 8.9 75% 76.56 1015.3
13 02:53 Calm 16.09 Fair CLR 14.4 8.9 70% 76.5 1014.8
13 01:53 S 6 16.09 Fair CLR 18.3 7.8 51% 76.5 1014.3
13 00:53 S 6 16.09 Fair CLR 18.3 8.3 52% 76.5 1014.4
12 23:53 Calm 16.09 Fair CLR 16.7 8.9 35.6 16.7 60% 76.48 1014.6
12 22:53 SW 13 16.09 Fair CLR 22.8 6.7 35% 76.43 1013.5
12 21:53 S 20 16.09 Fair CLR 27.2 3.9 22% 26 76.35 1012.4
12 20:53 SW 15 16.09 Fair CLR 30 3.3 18% 28 76.33 1011.9
12 19:53 SW 22 16.09 Fair CLR 32.2 7.2 21% 30 76.3 1012.0
12 18:53 S 28 G 50 16.09 Fair CLR 34.4 5.6 17% 32 76.25 1011.6
12 17:53 S 41 G 57 16.09 Fair and Breezy CLR 35.6 6.1 36.7 31.1 16% 33 76.28 1011.8
12 16:53 S 33 G 52 16.09 Fair and Breezy CLR 36.1 5 14% 34 76.35 1012.5
12 15:53 S 31 G 46 16.09 Fair CLR 36.1 5 14% 34 76.43 1013.0
12 14:53 S 26 16.09 Fair CLR 35.6 6.1 16% 33 76.48 1014.1
12 13:53 SW 22 G 31 16.09 Fair CLR 34.4 6.1 17% 32 76.53 1014.4
12 12:53 SW 15 16.09 Fair CLR 32.8 7.2 20% 31 76.58 1015.3
12 11:53 SW 13 16.09 Fair CLR 31.1 8.9 31.1 11.1 25% 29 76.61 1015.5
12 10:53 NW 6 16.09 Fair CLR 26.7 12.8 42% 27 76.63 1016.0
12 09:53 N 6 16.09 Fair CLR 24.4 12.2 47% 26 76.63 1016.0
12 08:53 N 6 16.09 Fair CLR 21.1 14.4 66% 76.63 1016.1
12 07:53 Calm 16.09 Fair CLR 16.7 12.2 75% 76.61 1016.1
12 06:53 Calm 16.09 Fair CLR 13.3 9.4 77% 76.61 1016.0
12 05:53 Calm 16.09 Fair CLR 13.3 8.9 24.4 12.2 75% 76.56 1015.3
12 04:53 N 7 16.09 Fair CLR 13.3 9.4 77% 76.5 1014.7
12 03:53 SW 6 16.09 Fair CLR 18.3 6.7 47% 76.45 1013.4
12 02:53 SW 7 16.09 Fair CLR 15.6 8.3 62% 76.43 1013.3
12 01:53 Calm 16.09 Fair CLR 21.1 7.2 41% 76.4 1012.8
12 00:53 NE 7 16.09 Fair CLR 20.6 6.7 41% 76.38 1012.7
11 23:53 W 19 G 33 16.09 Fair CLR 24.4 3.9 36.1 22.2 26% 25 76.3 1011.6
11 22:53 S 15 16.09 Fair CLR 26.1 6.7 29% 26 76.25 1010.8
11 21:53 S 15 16.09 Fair CLR 27.2 8.9 32% 27 76.25 1010.6
11 20:53 S 20 16.09 Fair CLR 30 8.9 27% 29 76.23 1010.8
11 19:53 S 22 16.09 Fair CLR 32.8 8.9 23% 31 76.23 1010.9
11 18:53 S 35 G 48 16.09 Fair and Breezy CLR 35 6.1 17% 33 76.23 1011.3
11 17:53 S 33 G 48 16.09 Fair and Breezy CLR 36.1 5.6 36.7 28.9 15% 34 76.25 1011.6
11 16:53 S 28 G 46 16.09 Fair CLR 36.7 6.1 15% 34 76.33 1012.5
11 15:53 S 26 G 35 16.09 Fair CLR 36.1 8.9 19% 34 76.38 1013.2
11 14:53 S 22 16.09 Fair CLR 35 7.8 19% 33 76.43 1013.6
11 13:53 SW 19 16.09 Fair CLR 32.8 9.4 24% 31 76.48 1014.6
11 12:53 SW 26 16.09 Fair CLR 31.1 8.3 24% 29 76.53 1015.3
11 11:53 SW 22 G 37 16.09 Fair CLR 28.9 8.3 30 10.6 27% 28 76.56 1015.9
11 10:53 S 20 G 28 16.09 Fair CLR 27.8 8.3 29% 27 76.56 1015.6
11 09:53 S 11 16.09 Fair CLR 25.6 7.8 32% 26 76.58 1015.8
11 08:53 Calm 16.09 Fair CLR 19.4 11.7 61% 76.58 1016.0
11 07:53 N 7 16.09 Fair CLR 15.6 11.1 75% 76.5 1014.6
11 06:53 N 7 16.09 Fair CLR 11.7 8.9 83% 76.48 1014.4
11 05:53 Calm 16.09 Fair CLR 11.1 8.9 20.6 10 86% 76.43 1014.0
11 04:53 NW 6 16.09 Fair CLR 11.7 8.9 83% 76.43 1013.8
11 03:53 N 7 16.09 Fair CLR 12.8 10 83% 76.4 1013.5
11 02:53 N 13 16.09 Fair CLR 15 10 72% 76.4 1013.5
11 01:53 N 15 16.09 Fair CLR 14.4 10 75% 76.4 1013.6
11 00:53 N 11 16.09 Fair CLR 16.1 11.1 72% 76.38 1013.2
10 23:53 N 7 16.09 Fair CLR 17.8 10 36.7 16.1 60% 76.35 1013.1
10 22:53 Calm 16.09 Fair CLR 20 11.7 59% 76.38 1013.3
10 21:53 Calm 16.09 Fair CLR 21.7 13.9 61% 76.35 1013.4
10 20:53 E 7 16.09 Fair CLR 27.2 11.1 37% 27 76.35 1012.9
10 19:53 SE 9 16.09 Fair CLR 35 2.2 13% 32 76.35 1012.4
10 18:53 SE 13 16.09 Fair CLR 36.1 1.7 11% 33 76.38 1013.0
10 17:53 SE 15 16.09 Fair CLR 36.1 2.8 37.2 27.8 12% 33 76.43 1013.8
10 16:53 Vrbl 7 16.09 Fair CLR 36.1 3.3 13% 33 76.45 1013.5
10 15:53 N 7 16.09 Fair CLR 35 9.4 21% 33 76.5 1014.5
10 14:53 NW 6 16.09 Fair CLR 32.8 13.9 32% 32 76.53 1015.5
10 13:53 NW 6 16.09 Fair CLR 33.3 8.3 21% 31 76.56 1015.4
10 12:53 NW 9 16.09 Fair CLR 30.6 13.3 35% 30 76.61 1016.3
10 11:53 NW 9 16.09 Fair CLR 27.8 13.9 27.8 10.6 43% 28 76.63 1017.3
10 10:53 N 9 14.48 Fair CLR 25.6 13.3 47% 26 76.63 1017.1
10 09:53 N 9 16.09 Fair CLR 21.7 12.8 57% 76.66 1017.2
10 08:53 NW 11 16.09 Fair CLR 18.3 12.8 70% 76.63 1016.3
10 07:53 N 7 16.09 Fair CLR 15.6 11.1 75% 76.61 1015.9
Date Time (mdt) Wind (kph) Vis. (km) Weather Sky Cond. Air Dwpt Max. Min. Relative Humidity Wind Chill (°C) Heat Index (°C) altimeter (cm) sea level (mb) 1 hr 3 hr 6 hr
6 hour
Temperature (ºC) Pressure Precipitation (cm)